User: anonymous   Login
Location: Newark
(43.0000°N, 1.6781°W)
Time: 10:47:39
(UTC+00:00)
Language:

ZACube-1 - Orbit

View from above orbital plane
View from above orbital plane
View from above satellite
View from above satellite

Ground track
Ground track

The orbit data is extracted from the following two-line orbital elements,

1 39417U 13066B   22333.71496881  .00001556  00000-0  19252-3 0  9996
2 39417  97.6596 298.0070 0055645 221.6234 138.0739 14.83061666487617
Epoch (UTC): 29 November 2022 17:09:33
Eccentricity: 0.0055645
inclination: 97.6596°
perigee height: 581 km
apogee height: 658 km
right ascension of ascending node: 298.0070°
argument of perigee: 221.6234°
revolutions per day: 14.83061666
mean anomaly at epoch: 138.0739°
orbit number at epoch: 48761

The dashed part of the orbit path shows where the satellite is in the earth's shadow,  

DLR